Simultaneous Nadir Overpasses (SNOs) Predictions

Prediction of SNOs between LANDSAT-8 and METOP-B Satellite Orbit:

Table of predicted SNOs for the next 14.0 days since TLE Epoch: 12/17/2022
Index Date (LANDSAT-8) Time (LANDSAT-8) Lat,Lon (LANDSAT-8) SZA (LANDSAT-8 ) Date (METOP-B) Time (METOP-B) Lat,Lon (METOP-B) SZA (METOP-B ) Distance(km) Time Diff (sec)
1 12/18/2022 01:33:24 81.13,-163.38 106.53 12/18/2022 01:33:16 81.12,-163.50 106.51 2.20 8
2 12/18/2022 02:22:50 -81.15, 4.53 73.44 12/18/2022 02:23:55 -81.14, 4.48 73.42 0.98 65
3 12/20/2022 20:18:11 -81.12, 95.22 73.49 12/20/2022 20:16:59 -81.12, 95.41 73.50 3.29 72
4 12/20/2022 21:07:37 81.12, -97.07 106.52 12/20/2022 21:07:39 81.13, -96.94 106.54 2.40 2
5 12/20/2022 21:56:12 -81.83, 91.40 70.73 12/20/2022 21:57:23 -81.23, 92.48 70.87 69.43 71
6 12/23/2022 15:52:24 -81.10, 161.42 73.57 12/23/2022 15:51:23 -81.11, 161.56 73.57 2.45 61
7 12/23/2022 16:41:49 81.13, -30.53 106.50 12/23/2022 16:42:02 81.13, -30.43 106.51 1.81 13
8 12/26/2022 11:26:34 -81.12,-131.79 73.62 12/26/2022 11:25:44 -81.12,-131.60 73.62 3.20 50
9 12/26/2022 12:16:00 81.12, 35.86 106.38 12/26/2022 12:16:24 81.13, 36.01 106.42 2.78 24
10 12/29/2022 07:00:46 -81.11, -65.50 73.81 12/29/2022 07:00:08 -81.11, -65.57 73.83 1.18 38



Historial Predications of SNOs between LANDSAT-8 and METOP-B
